Regional Weather Roundup
Issued by NWS

Home | Current Version | Previous Version | Graphics & Text | Print | Product List | Glossary On
Versions: 1 2 3 4 5 6 7 8 9 10 11 12 13 14 15 16 17 18 19 20 21 22 23 24 25 26 27 28 29 30 31 32 33 34 35 36 37 38 39 40 41 42 43 44 45 46 47 48 49 50
000
ASUS43 KIND 222309
RWRIN

WEATHER ROUNDUP FOR INDIANA
NATIONAL WEATHER SERVICE INDIANAPOLIS IN
700 PM EDT SAT APR 22 2017

NOTE: "FAIR" INDICATES FEW OR NO CLOUDS BELOW 12,000 FEET WITH NO
SIGNIFICANT WEATHER AND/OR OBSTRUCTIONS TO VISIBILITY.

* - STATION DOES NOT REPORT WEATHER SUCH AS PRECIPITATION OR FOG.

+ - STATION NOT QUALITY CONTROLLED BY THE NATIONAL WEATHER SERVICE.
    USE DATA WITH CAUTION...ESPECIALLY DEWPOINT AND RELATIVE
    HUMIDITY OBSERVATIONS.

INZ001>003-010>013-019-020-230000-
NORTHWEST INDIANA

CITY           SKY/WX    TMP DP  RH WIND       PRES   REMARKS
GARY /AIRPORT/ MOSUNNY   52  30  43 N8        30.17S
KNOX *+        CLOUDY    55   5  13 N20       30.11R
LA PORTE +     SUNNY     50  30  45 N17       30.14S
MICHIGAN CITY+ SUNNY     46  32  57 N9        30.17S
MONTICELLO +   MOSUNNY   61  30  31 NE12      30.08S
RENSSELAER +   SUNNY     59  30  33 N15       30.11R
VALPARAISO     SUNNY     53  29  39 N14       30.14R

$$

LMZ046-743>745-230000-
SOUTHERN LAKE MICHIGAN

STATION/POSITION TIME  TEMP    WIND        PRES    WAVE
                       AIR SEA DIR/SP/G            HT
                 (UTC) (F)     (DEG/KT/KT) (MB)    (FT)
BURNS HARBOR     2240   45      20/  9/ 11 1021.7F
MICHIGAN CITY    2240   44      10/  9/ 10   N/A

$$

INZ004-005-014>016-021>024-230000-
NORTH CENTRAL INDIANA

CITY           SKY/WX    TMP DP  RH WIND       PRES   REMARKS
GOSHEN         SUNNY     60  29  30 NE8       30.10F
LOGANSPORT +   MOSUNNY   59  32  36 NE6       30.10S
PERU/GRISSOM   MOSUNNY   58  35  41 NE12      30.08R
ROCHESTER +    SUNNY     61  28  29 E9        30.10R
SOUTH BEND     SUNNY     56  34  43 N15       30.13R
WARSAW +       SUNNY     61  32  33 NE10      30.09S

$$

INZ006>009-017-018-025>027-230000-
NORTHEAST INDIANA

CITY           SKY/WX    TMP DP  RH WIND       PRES   REMARKS
ANGOLA *+      SUNNY     59  48  67 NE9       30.10S
AUBURN +       CLOUDY    59  32  36 E8        30.10F
FORT WAYNE     PTSUNNY   57  35  43 NE14      30.10S
HUNTINGTON +   MOSUNNY   56  32  40 E9        30.10R
KENDALLVILLE + CLOUDY    60  34  37 NE9       30.10S

$$

INZ028-029-035-036-043>045-051>053-230000-
WEST CENTRAL INDIANA

CITY           SKY/WX    TMP DP  RH WIND       PRES   REMARKS
CRAWFORDSVL +  MOSUNNY   55  35  46 NE17      30.07R
GREENCASTLE +  CLOUDY    54  34  47 NE13G21   30.06S
LAFAYETTE      MOSUNNY   59  36  42 NE13      30.08S
TERRE HAUTE    MOSUNNY   57  36  45 NE17G24   30.04S

$$

INZ030>032-037>040-046>048-054>057-064-065-230000-
CENTRAL INDIANA

CITY           SKY/WX    TMP DP  RH WIND       PRES   REMARKS
CP ATTERBURY + MOSUNNY   55  37  50 NE9G18    30.05S
COLUMBUS       SUNNY     55  34  44 NE14G21   30.03F
FISHERS *+     MOSUNNY   54  37  54 NE8       30.07S
FRANKFORT +    MOSUNNY   58  34  39 E14G20    30.10S
GREENWOOD *+   SUNNY     56  35  43 NE14G22   30.05S
INDIANAPOLIS   CLOUDY    57  35  43 NE17      30.04F
-EAGLE CREEK   MOSUNNY   56  34  43 NE12G20   30.05F
KOKOMO +       MOSUNNY   56  35  45 NE13      30.09F
MARION +       MOSUNNY   54  36  50 NE15      30.09F
MT COMFORT *+  SUNNY     54  34  47 NE18      30.06S
SHELBYVILLE    SUNNY     58  36  43 NE15      30.03F
ZIONSVILLE +   MOSUNNY   53  34  47 NE13      30.08S

$$

INZ033-034-041-042-049-050-058-059-230000-
EAST CENTRAL INDIANA

CITY           SKY/WX    TMP DP  RH WIND       PRES   REMARKS
MUNCIE         SUNNY     54  29  38 NE17      30.07S
RICHMOND +     PTSUNNY   54  34  47 NE18      30.04F

$$

INZ060-061-067>069-081>083-085>088-230000-
SOUTHWEST INDIANA

CITY           SKY/WX    TMP DP  RH WIND       PRES   REMARKS
EVANSVILLE     PTSUNNY   57  44  62 NE12      29.98F
HUNTINGBURG *+ SUNNY     55  42  61 NE14      29.99S
WASHINGTON +   SUNNY     57  36  44 MISG      30.00S

$$

INZ062-063-066-070>080-084-089>092-230000-
SOUTH CENTRAL AND SOUTHEAST INDIANA

CITY           SKY/WX    TMP DP  RH WIND       PRES   REMARKS
BEDFORD +      MOSUNNY   55  37  50 NE14G23   30.00F
BLOOMINGTON    SUNNY     56  37  49 E14G20    30.02S
MADISON *+     SUNNY     52  37  58 NE13G22   30.02F
NORTH VERNON + SUNNY     55  37  50 NE13      30.01F
SEYMOUR +      CLOUDY    57  39  51 NE15      30.02S

$$





USA.gov is the U.S. government's official web portal to all federal, state and local government web resources and services.